SCP
1 1 0 0 0 0 0 1 1 1 1 1 2 2 2 3 2 2 3 4 4 4 4 4 4 4 4 3 4 4 4 4 4 4 4 3 3 3 3 3 2 2 2 2
1 1 1 1 1 1 1 1 1 1 1 1 2 2 2 2 3 3 3 4 4 4 4 5 4 4 4 4 5 5 4 4 4 4 4 4 3 3 3 3 2 2 2 2
1 1 1 1 1 1 1 1 1 1 1 1 2 2 2 2 3 3 4 4 5 4 4 4 5 5 5 6 6 5 4 4 4 4 4 4 4 3 3 3 3 3 2 2
1 1 1 1 1 1 1 1 1 1 1 1 2 2 2 2 3 4 4 5 5 5 5 5 5 5 6 6 6 5 5 5 5 5 5 5 5 4 4 3 3 3 3 3
1 1 1 1 1 1 1 1 2 2 2 2 2 2 2 2 3 4 4 5 5 6 6 7 7 7 7 8 7 7 6 5 5 5 5 5 6 5 4 4 3 3 3 3
1 1 1 1 1 1 1 2 2 2 2 2 2 3 3 3 3 4 5 5 6 7 8 8 9 9 9 10 10 8 7 6 6 6 5 5 6 5 5 4 4 3 3 3
1 1 1 1 1 1 2 2 2 2 2 2 3 3 4 4 4 5 5 6 7 8 8 9 10 10 11 11 11 10 8 7 7 6 6 5 6 6 5 4 3 3 4 4
1 1 1 1 2 2 2 3 2 2 2 3 4 5 5 5 5 5 4 5 6 7 8 9 10 11 11 11 10 10 9 8 8 8 7 6 6 6 5 4 4 3 3 4
1 1 1 1 2 2 3 3 3 2 2 3 4 5 5 5 5 5 4 3 4 5 7 8 9 10 10 10 9 10 10 10 10 10 9 8 8 7 6 5 4 3 3 3
1 1 1 1 1 2 3 3 3 3 2 3 4 4 3 3 3 3 3 3 3 3 4 6 7 7 8 8 9 10 11 12 13 12 11 10 9 8 7 6 5 4 3 3
1 1 1 1 1 2 2 3 3 2 2 3 3 2 2 1 2 2 2 2 2 3 3 5 6 5 5 7 9 11 13 14 15 14 13 12 10 8 7 6 5 3 2 2
0 1 1 0 1 1 2 2 2 2 2 2 2 2 1 1 1 1 2 2 2 2 3 5 6 5 4 6 9 12 13 15 15 14 13 12 11 9 7 5 3 2 1 1
0 0 1 1 1 1 1 1 2 2 1 1 1 1 1 1 1 1 1 1 2 2 3 4 5 4 4 5 8 10 11 11 12 12 10 10 10 9 8 5 3 2 1 0
0 0 1 1 1 1 1 1 2 1 1 1 1 1 1 1 1 1 1 1 1 2 2 4 5 4 4 4 6 7 7 6 6 7 6 6 6 7 8 7 6 5 3 2
1 1 1 1 1 1 1 2 2 2 1 1 1 1 1 1 1 1 1 1 1 2 2 3 4 4 4 5 5 5 4 3 4 4 3 3 3 4 6 7 8 8 7 5
1 1 1 1 1 1 2 1 1 1 1 1 1 1 1 1 1 1 1 1 1 2 2 2 3 3 5 6 7 6 4 3 3 3 3 3 3 3 5 7 8 9 10 9
0 0 0 0 1 1 1 1 1 1 1 1 1 1 1 1 1 1 0 1 1 1 2 2 2 2 3 4 5 5 4 3 3 4 5 5 5 6 7 8 10 10 10 10
0 0 0 0 0 1 1 1 1 1 0 0 1 1 1 1 0 0 0 0 1 1 2 2 1 2 2 2 2 3 4 4 5 6 7 8 8 9 10 11 11 10 10 9
0 0 0 0 0 1 1 1 1 0 0 1 1 1 1 0 0 0 0 0 1 1 1 1 1 1 1 1 1 2 2 4 6 7 9 9 10 11 11 11 11 10 9 8
0 0 0 0 1 1 1 1 0 0 1 1 1 1 0 0 0 0 0 0 1 1 1 1 1 1 1 1 1 1 2 3 5 7 9 10 11 11 11 11 11 10 9 8
0 0 0 1 1 1 1 0 0 0 0 1 1 1 1 0 0 0 0 1 1 1 1 1 1 1 1 1 1 1 2 2 4 6 8 9 10 10 10 10 10 10 9 8
0 0 0 1 1 1 0 0 0 0 0 1 1 1 1 1 1 1 1 1 1 1 1 1 1 1 1 1 1 2 2 2 3 4 6 7 7 7 7 7 7 7 7 6
0 0 0 0 0 0 0 0 0 0 0 0 1 1 1 1 1 1 1 1 1 1 1 1 1 1 1 1 2 2 2 2 2 3 4 5 5 5 4 4 4 4 4 4
0 0 0 0 0 0 0 1 1 0 0 0 0 0 0 1 1 1 1 1 1 1 1 1 1 0 1 2 2 2 2 2 2 2 3 3 4 3 3 2 3 3 3 2
0 0 0 0 0 0 1 1 1 1 1 0 0 0 1 1 1 1 1 1 1 1 1 1 1 1 1 2 2 2 2 2 2 2 2 2 2 2 2 2 2 2 2 2
1 1 1 1 1 0 1 1 1 1 1 1 1 1 1 1 1 1 1 1 1 1 1 1 1 1 1 1 2 2 2 2 2 1 1 1 1 2 2 2 2 2 2 1
1 1 1 1 1 0 0 1 1 1 1 1 1 1 1 1 1 1 1 1 1 1 1 1 1 1 1 1 1 1 2 2 2 1 1 1 1 1 1 2 2 2 2 1
Wind_Speed
6 4 5 7 7 8 10 10 11 8 6 4 2 2 2 2 2 1 1 1 2 1 1 1 0 1 2 2 3 3 4 4 4 4 3 3 3 3 3 4 3 3 3 4
7 6 6 7 7 8 9 9 9 8 6 4 3 2 2 2 2 2 2 2 2 2 1 1 1 1 2 2 3 3 3 3 3 4 4 4 4 4 3 4 3 3 4 4
7 6 7 8 5 6 6 6 7 7 4 3 3 3 3 3 3 3 3 3 3 2 1 1 1 1 2 2 2 3 3 3 3 4 4 4 4 4 4 4 4 4 4 4
6 6 9 1 1 2 4 3 4 5 4 3 3 3 2 3 4 4 4 4 3 3 2 1 1 1 2 3 3 3 4 4 4 4 4 4 4 4 4 3 4 3 4 4
6 7 5 4 1 3 5 4 3 4 4 4 3 3 2 3 4 5 5 4 4 3 3 2 1 1 2 3 3 4 4 4 4 4 5 4 4 4 3 3 3 3 4 4
6 7 5 1 2 3 6 6 2 4 4 5 4 5 1 4 4 5 5 5 4 3 2 2 1 1 2 3 3 3 3 3 3 4 4 4 4 4 3 3 3 4 3 3
7 7 2 3 2 3 6 2 4 4 4 4 4 4 4 4 4 4 5 5 4 3 2 2 2 2 2 3 3 3 3 3 3 3 4 4 4 4 3 4 3 3 3 3
5 6 1 4 1 2 3 4 4 4 4 4 3 3 4 5 5 5 5 5 4 3 3 2 2 3 3 3 3 3 3 3 3 3 3 3 4 3 3 3 4 4 3 3
3 2 3 2 1 2 3 4 4 5 4 3 3 4 5 6 6 5 6 5 4 3 3 2 3 3 3 2 2 3 3 3 3 4 3 3 4 4 3 3 3 3 3 3
3 2 1 1 2 3 3 4 5 5 5 4 5 5 6 5 5 6 6 5 4 3 3 3 2 2 1 2 2 3 3 3 3 3 3 3 3 3 2 2 2 2 3 3
5 3 4 2 3 4 4 5 5 5 5 5 5 5 6 5 6 5 5 5 4 3 3 3 2 1 1 2 3 3 3 3 3 3 3 3 2 1 1 1 1 2 2 2
4 3 4 3 4 5 5 5 6 5 5 5 5 5 5 5 5 5 5 4 4 3 3 2 2 1 1 1 2 3 3 3 3 3 3 3 3 2 2 1 2 2 3 3
4 4 5 5 5 5 5 5 5 5 5 5 5 5 5 5 5 4 5 4 4 3 3 2 2 1 0 1 1 2 2 2 2 2 3 3 2 2 2 2 2 1 0 1
3 4 4 4 4 4 4 4 4 4 5 4 4 5 5 5 4 4 5 5 4 3 2 2 1 0 0 1 1 1 2 1 2 2 2 2 2 2 2 2 2 2 2 3
2 3 3 3 3 4 4 4 3 3 4 4 3 4 4 4 4 4 4 4 3 2 2 1 1 1 0 1 1 1 1 1 1 1 1 1 2 2 2 2 2 1 1 3
2 2 1 2 2 3 4 4 4 3 3 4 4 4 4 4 4 4 4 3 2 2 2 1 0 1 0 0 1 1 1 1 1 1 2 2 2 2 2 2 1 1 1 1
2 2 2 3 3 4 4 4 4 4 4 4 4 4 4 4 4 4 4 4 3 2 1 1 1 1 1 1 2 1 1 2 3 3 2 2 2 2 2 1 1 1 1 1
3 4 4 4 5 5 5 5 4 4 4 4 3 3 4 4 4 4 4 3 3 2 1 1 0 1 1 2 1 2 2 2 2 2 2 2 2 2 2 2 2 2 1 3
3 3 3 4 5 5 5 5 5 4 4 3 3 3 3 3 4 4 3 2 2 2 2 2 1 2 2 1 2 2 2 2 2 2 2 2 3 2 2 2 2 1 1 1
3 3 4 4 4 5 5 5 4 3 3 2 2 3 3 3 4 3 2 2 2 2 2 1 2 1 2 2 3 2 2 2 2 2 2 2 2 2 2 1 1 1 1 1
3 3 4 4 4 5 5 4 4 3 3 3 3 3 3 3 3 3 2 1 1 2 2 1 2 1 1 1 4 3 2 2 2 2 2 2 2 2 1 1 1 0 0 1
3 4 4 4 4 4 3 3 4 4 4 3 3 3 3 2 2 2 2 1 1 1 2 1 0 2 2 4 4 3 2 2 2 2 2 2 2 1 1 1 1 1 1 1
3 4 4 4 4 3 3 3 3 3 4 3 3 3 3 3 2 2 1 1 1 1 2 1 2 2 3 4 3 3 2 2 2 2 2 2 2 1 1 2 1 1 1 1
3 3 3 3 2 2 3 3 3 3 3 3 3 2 2 2 2 2 1 1 0 1 1 2 1 1 4 3 2 2 2 2 2 2 2 2 1 1 1 1 1 1 1 2
3 3 3 2 2 1 1 2 2 2 3 2 3 2 2 2 2 2 2 1 1 2 1 1 2 3 4 3 2 1 1 1 0 1 1 1 1 1 0 1 0 1 1 1
3 2 2 2 2 2 2 2 2 2 2 2 2 2 2 2 1 1 1 0 1 1 1 0 2 2 2 2 1 0 1 2 1 1 1 1 1 0 0 1 0 0 0 1
2 1 1 1 1 1 2 2 2 3 3 3 3 3 2 2 1 1 1 1 1 1 1 0 0 1 1 1 0 0 0 0 0 0 1 1 0 0 0 0 0 0 0 0
Wind_Direction
267 272 258 252 249 242 245 258 266 273 279 314 303 310 322 331 328 336 356 12 15 2 3 351 196 186 188 195 196 191 188 189 181 174 180 192 191 190 194 195 196 197 198 207
243 237 240 250 257 252 248 255 262 270 276 332 327 323 331 334 333 336 332 355 6 359 358 320 253 220 200 200 197 191 196 195 182 180 184 195 198 190 194 197 196 200 209 216
247 234 242 241 251 252 249 260 266 271 298 323 312 314 321 326 338 346 342 346 336 333 341 308 263 221 207 190 183 185 190 189 188 186 190 197 199 187 190 200 201 211 219 223
249 237 238 105 58 274 264 271 292 288 295 305 309 304 311 359 358 353 344 338 330 322 312 298 260 220 195 180 183 189 193 194 193 191 190 192 200 195 193 201 204 212 220 219
249 240 235 206 218 279 267 259 310 301 308 318 316 268 209 41 0 348 346 339 327 307 293 285 272 232 193 186 187 196 201 201 199 194 192 190 196 200 199 198 200 215 219 211
243 252 252 75 51 308 267 243 320 310 307 310 302 274 0 24 350 347 341 335 323 307 293 280 269 233 207 200 200 205 204 203 207 199 197 195 197 206 204 202 204 213 210 210
246 247 239 41 356 252 246 359 8 324 307 299 305 320 343 332 331 335 332 325 319 311 296 290 271 233 216 210 210 208 211 207 201 197 197 195 193 196 202 207 208 218 212 214
250 247 226 45 339 278 359 8 338 327 319 313 313 309 314 317 319 323 322 322 317 307 298 292 266 242 225 219 212 205 201 198 195 195 201 190 185 193 202 206 201 208 213 220
303 353 46 42 348 350 331 322 324 318 322 319 310 308 312 312 314 318 317 316 312 303 295 285 262 244 229 216 197 192 191 198 200 195 198 191 191 190 192 203 220 216 218 222
265 259 298 329 330 326 328 330 325 323 316 309 307 303 303 306 308 311 313 311 308 300 292 294 289 269 227 207 192 184 191 195 190 188 187 182 193 193 202 211 221 230 242 241
245 272 282 294 320 327 337 330 323 324 318 308 303 300 304 307 311 315 316 317 308 302 298 295 292 271 231 209 187 180 187 198 196 191 180 176 180 173 220 233 291 263 255 256
278 307 296 305 323 321 321 323 320 318 320 316 309 304 304 308 313 313 311 313 312 311 306 300 296 270 231 209 189 185 191 197 199 185 178 182 171 156 64 77 66 49 4 327
283 294 300 298 304 311 315 321 324 324 323 320 320 316 314 313 311 310 312 315 313 310 309 313 317 303 273 187 188 194 205 205 198 185 173 179 189 190 177 140 137 137 180 326
269 269 271 285 302 314 319 319 321 327 328 327 324 321 316 314 314 313 317 320 314 311 306 305 315 333 287 181 178 199 206 185 204 191 187 190 194 199 209 211 192 184 183 190
290 279 277 294 306 312 311 303 300 315 326 328 327 324 325 322 320 317 314 312 315 313 313 315 343 6 293 190 188 192 201 207 209 188 193 195 207 216 217 218 212 190 162 150
301 302 299 299 306 315 310 304 299 307 312 319 326 327 327 322 319 321 318 312 307 315 324 326 13 5 319 191 180 201 191 132 229 213 201 196 210 220 216 211 210 197 198 187
280 287 293 304 309 314 314 309 298 297 301 307 314 317 318 320 323 328 326 331 329 320 314 307 244 193 199 213 223 213 185 165 197 217 210 208 221 234 233 222 214 217 222 98
282 285 291 301 304 303 303 300 293 294 300 303 302 310 317 320 318 318 320 324 327 328 319 286 284 272 236 220 229 227 204 200 204 205 205 202 215 226 230 226 214 218 193 150
284 288 295 299 303 303 303 302 300 300 294 290 294 300 305 310 306 306 312 308 306 311 329 340 300 253 242 233 248 221 203 193 186 186 207 193 217 224 221 217 216 217 198 177
311 314 308 304 310 310 304 302 300 297 292 285 287 287 300 315 309 299 293 301 332 345 341 338 282 257 242 221 261 235 203 208 200 185 195 208 222 236 235 219 212 208 201 191
325 313 304 308 312 306 303 301 304 305 306 294 285 287 300 310 307 302 290 309 352 344 309 245 244 252 261 285 250 233 203 208 216 206 201 206 216 227 223 214 223 213 175 175
314 309 302 307 307 307 312 309 312 317 318 308 298 296 302 303 296 298 302 315 325 343 278 263 335 33 346 285 245 231 209 203 220 220 220 219 214 225 239 230 221 209 206 211
306 309 305 307 313 315 312 313 322 323 319 315 314 312 312 313 313 309 322 348 313 306 283 5 37 40 297 261 250 243 218 209 224 226 228 233 225 223 234 232 222 213 212 218
311 311 309 311 310 305 314 325 330 327 318 312 322 323 310 307 320 330 352 81 107 279 293 77 109 263 263 250 244 245 234 223 231 237 244 245 235 230 226 226 220 210 216 230
309 308 309 307 289 300 316 308 308 315 317 335 340 331 317 329 331 347 349 360 93 252 265 137 175 226 251 265 260 244 221 208 263 289 269 279 283 287 241 222 232 261 260 252
303 303 313 304 316 311 303 303 311 326 334 336 339 348 352 344 334 320 287 242 194 253 273 172 161 215 258 278 261 229 197 150 164 224 271 262 244 241 81 68 271 252 212 211
289 309 295 295 303 301 305 306 308 319 329 331 329 334 334 323 314 305 286 250 210 229 231 237 198 225 266 300 341 66 58 64 78 288 288 274 237 78 90 200 260 182 168 165